GFSCGP_700_temp_336.txt.gz
Temp
14 15 16 14 14 14 14 14 15 15 15 14 15 15 15 14 13 13 13 12 13 13 11 10 11 11 11 11 11 11 11 11 11 11 11 10 10 10 10 10 9 9 9 9
14 16 14 14 14 14 15 16 16 16 14 14 15 15 15 15 14 14 13 13 12 12 11 10 11 11 11 10 10 10 10 10 11 11 11 11 10 10 9 9 9 9 8 8
14 15 15 14 14 14 15 15 15 15 15 14 15 17 16 15 15 15 13 13 13 12 12 11 12 12 11 11 10 10 10 10 9 10 10 10 10 9 9 9 9 8 8 8
14 15 14 13 14 14 17 15 14 15 16 18 15 18 17 16 15 16 16 15 13 12 12 11 11 12 11 11 11 10 10 10 9 9 9 10 9 9 8 7 6 9 8 7
15 14 14 14 14 15 15 14 14 14 16 16 17 18 18 17 17 15 14 15 15 14 12 12 11 12 12 11 11 10 10 10 9 9 9 9 9 8 7 8 9 8 8 7
14 15 15 15 15 15 15 14 15 15 16 19 16 16 19 18 16 15 15 16 16 15 14 12 11 11 11 11 11 11 10 10 9 9 9 9 8 8 8 8 8 8 7 7
16 15 16 16 15 15 14 16 19 19 20 20 16 17 18 16 16 16 16 16 16 15 14 13 12 11 12 12 11 11 10 11 10 9 8 9 8 9 9 8 8 8 8 8
17 17 15 15 15 15 15 16 17 18 20 19 16 18 18 16 16 16 16 16 16 15 15 14 10 10 12 11 11 11 11 10 10 9 8 7 9 8 8 8 7 7 7 7
17 18 16 15 14 14 15 16 16 17 18 18 19 18 17 16 16 14 15 16 15 15 15 14 13 13 12 12 11 11 11 11 10 11 10 8 8 8 8 7 7 7 8 8
16 17 16 15 15 15 15 15 17 17 17 18 19 18 18 16 16 14 14 13 14 15 14 14 13 13 13 12 12 11 11 9 10 10 10 10 9 7 7 6 6 6 6 7
16 16 16 16 16 17 15 15 15 16 16 18 18 18 17 16 14 14 13 12 14 14 14 13 13 13 13 12 12 12 11 11 10 10 10 8 8 8 7 8 7 8 7 8
16 16 17 17 16 16 15 16 16 17 17 17 16 16 15 14 14 13 13 13 13 13 14 13 13 13 13 13 12 12 11 11 11 11 10 9 9 8 9 8 7 8 7 7
15 16 17 18 16 15 15 16 15 15 15 16 16 17 16 14 14 13 13 12 13 13 13 13 12 12 12 12 12 12 12 12 11 11 11 11 10 9 9 9 9 8 8 8
14 15 16 17 17 16 16 15 15 15 15 16 16 16 15 14 13 13 12 12 12 13 13 13 12 12 12 12 12 13 12 12 12 11 11 10 10 9 8 9 9 8 8 9
14 15 15 15 15 15 15 15 15 15 15 14 15 14 14 13 12 12 12 12 12 12 13 12 12 12 11 11 12 13 12 12 12 11 11 11 10 9 9 9 9 9 8 8
14 13 13 14 14 14 14 14 14 14 14 14 14 14 14 12 11 11 11 11 11 12 12 12 11 11 11 12 12 12 11 11 11 11 11 10 9 9 9 9 9 8 8 7
13 13 13 14 14 14 13 14 14 14 14 14 14 14 12 11 11 11 11 11 11 10 10 10 10 11 11 10 10 11 10 10 10 10 10 10 10 10 9 8 8 7 7 7
12 11 12 13 13 14 15 13 12 12 12 13 12 12 11 10 11 11 10 10 10 10 10 10 10 10 10 10 10 9 9 10 10 9 8 10 9 8 8 7 7 6 6 6
11 12 13 13 14 15 14 13 12 12 12 12 11 10 10 9 10 10 9 10 9 9 9 9 9 9 9 9 9 9 8 9 8 7 8 8 8 7 7 7 6 6 5 5
11 11 11 13 13 14 14 11 11 10 11 10 9 9 9 9 9 9 9 9 9 9 9 9 9 9 8 8 8 8 8 7 7 7 7 8 7 7 7 7 6 5 5 5
11 11 11 12 13 13 12 11 10 10 11 9 9 9 9 8 8 9 8 8 8 8 9 9 9 8 8 7 7 8 7 7 7 7 7 7 7 7 7 6 6 6 5 5
12 12 12 12 12 12 10 10 9 10 10 8 8 8 8 8 8 8 8 8 8 8 8 8 8 8 7 7 7 7 7 7 7 7 7 7 7 7 6 6 6 5 5 4
10 11 12 11 12 10 10 9 8 8 8 8 7 8 7 8 8 7 7 7 7 7 8 7 7 7 6 7 7 7 7 6 7 7 7 6 6 6 6 6 5 5 5 5
10 9 9 9 9 9 9 8 8 7 7 7 7 7 7 7 7 7 7 7 7 7 7 7 7 7 6 7 6 6 6 6 6 6 6 6 6 6 5 5 5 5 5 5
10 9 8 8 8 8 8 8 7 7 6 7 7 7 7 7 7 7 6 7 7 7 7 6 6 6 6 6 6 6 5 5 5 6 5 5 5 5 5 5 5 5 5 4
9 9 8 9 8 7 7 7 6 6 6 6 7 6 6 7 7 6 6 6 7 6 6 6 6 6 6 6 6 5 5 5 4 5 5 4 3 3 4 4 4 4 4 4

GFSCGP_700_temp_339.txt.gz
Temp
15 15 15 17 16 16 17 17 16 17 17 17 17 17 17 17 16 16 15 14 13 13 12 12 10 10 10 12 12 12 12 12 12 11 11 11 11 10 10 8 10 9 9 9
16 14 16 16 16 17 17 16 17 17 17 17 18 18 18 17 17 16 16 15 14 13 13 12 11 10 10 10 12 12 12 12 11 11 11 11 10 10 8 7 7 9 9 8
14 16 16 16 17 16 17 18 17 18 18 18 17 16 18 17 17 17 16 16 16 14 14 13 12 11 10 10 11 11 11 11 11 11 10 10 10 9 7 7 7 7 9 9
16 16 16 16 17 17 15 17 17 18 18 18 18 15 15 17 18 16 16 16 16 15 14 13 12 11 11 10 10 11 11 11 10 10 10 10 10 9 8 7 7 7 8 8
14 17 17 17 17 16 18 17 17 18 19 18 18 21 18 17 18 17 17 16 15 15 15 15 13 12 11 11 10 10 11 10 10 10 9 9 9 9 7 7 7 7 7 8
17 17 16 17 17 17 17 17 18 19 21 20 19 20 19 18 18 17 16 15 15 14 14 15 14 13 12 11 10 10 11 11 10 10 9 9 8 8 8 8 8 8 8 8
18 18 17 17 17 17 18 19 21 21 23 23 20 20 20 18 16 15 14 14 15 14 13 14 13 13 12 11 11 10 10 11 10 9 9 8 9 8 8 8 8 7 7 8
19 18 18 17 17 18 18 18 20 20 22 22 20 20 20 18 17 16 15 14 13 14 13 13 13 13 12 11 10 11 11 11 10 9 8 9 8 9 9 8 8 7 7 8
20 20 18 17 17 17 18 18 19 19 20 22 22 21 20 19 18 17 16 15 15 13 12 12 12 12 12 11 11 11 11 11 11 10 8 8 8 8 7 8 7 7 7 7
18 18 19 18 17 17 17 18 18 20 20 20 21 20 21 18 18 16 16 15 14 13 12 14 13 13 13 12 12 11 11 11 11 10 8 9 8 7 6 7 6 7 7 8
18 19 19 18 19 19 18 18 18 19 19 20 21 21 19 17 16 16 15 15 13 13 11 13 13 13 13 13 12 12 11 11 11 12 12 9 8 7 8 8 9 8 7 7
18 18 19 19 19 18 18 18 18 19 19 20 19 19 18 17 16 16 15 14 12 12 13 13 13 13 12 12 12 12 12 11 11 11 10 9 8 8 9 10 10 8 7 7
17 18 19 20 20 19 17 18 18 18 18 19 19 19 19 17 16 16 15 13 12 11 12 12 13 13 12 12 12 12 12 12 11 11 11 10 10 9 9 9 10 9 8 8
15 16 17 19 19 18 18 18 18 18 18 18 18 18 18 17 16 15 14 12 11 11 12 12 12 12 12 11 12 12 12 12 12 11 11 11 10 9 8 9 9 9 9 8
15 16 17 17 17 17 18 17 17 17 17 17 17 17 17 16 14 13 13 11 10 11 12 12 12 11 11 11 11 12 12 12 12 12 11 10 10 10 9 9 9 8 8 8
15 16 16 16 16 16 17 17 17 17 17 17 17 16 16 15 14 13 12 11 10 10 11 11 11 11 10 11 11 11 11 12 12 11 11 10 10 9 9 9 9 8 8 8
15 16 15 16 16 17 17 17 17 17 17 16 16 16 15 14 12 11 11 10 9 9 10 10 10 10 10 10 11 11 11 11 10 10 10 10 10 9 9 9 9 8 8 7
15 14 14 15 15 17 17 17 15 15 15 15 15 14 13 12 11 10 11 9 8 9 9 10 10 10 10 10 10 10 10 10 10 10 10 9 9 9 9 8 8 7 7 6
15 15 15 15 16 17 17 17 15 15 14 13 13 12 11 11 10 10 10 9 9 9 8 9 9 9 9 9 9 9 9 8 8 8 7 8 7 8 8 7 7 6 6 6
14 14 14 15 16 17 16 15 13 13 13 12 11 11 10 10 10 11 9 9 9 8 9 7 9 9 9 8 8 8 8 8 7 7 7 7 7 7 7 6 6 6 6 5
14 13 14 15 15 15 15 14 12 12 13 10 10 10 9 9 9 8 8 8 8 8 8 7 9 9 9 8 7 7 7 7 7 7 7 6 6 7 7 6 6 6 5 5
15 15 15 15 15 15 14 12 12 12 10 10 10 9 9 8 8 8 7 7 8 8 7 8 8 7 8 7 7 7 7 7 7 7 7 7 7 7 7 7 6 6 6 5
14 14 14 14 15 13 12 11 11 10 9 9 9 9 8 8 8 7 7 6 7 7 6 7 7 7 7 7 7 7 7 7 7 7 7 7 7 7 7 7 7 6 6 5
13 13 12 12 12 12 12 11 10 9 9 9 8 8 8 7 7 7 7 6 7 7 7 7 7 7 7 7 7 7 7 7 7 7 6 7 7 7 6 6 6 6 6 5
13 12 12 11 10 10 10 10 9 9 8 8 8 7 7 7 6 6 6 7 6 7 7 7 7 7 7 7 7 7 6 6 6 6 6 6 6 6 6 6 6 4 2 1
12 12 11 11 11 10 10 9 8 8 7 7 7 7 7 7 6 6 7 6 6 6 5 6 6 7 6 6 6 6 6 5 5 5 6 4 2 2 4 2 4 5 4 5

GFSCGP_700_temp_342.txt.gz
Temp
14 14 16 16 17 17 16 16 15 17 17 17 17 18 18 17 16 13 15 14 14 13 13 12 11 11 10 11 13 13 13 13 13 13 12 11 11 11 10 11 10 11 10 11
14 16 16 16 17 17 17 17 17 18 18 18 18 17 17 16 17 17 16 15 14 14 14 13 12 12 10 11 13 12 13 13 13 12 12 11 11 11 10 10 9 9 10 10
15 16 17 18 18 18 18 18 19 19 19 19 18 17 17 17 18 18 17 17 16 14 14 14 13 13 12 11 13 12 12 12 12 12 12 11 11 10 7 7 7 9 9 9
15 17 18 18 18 18 18 18 19 19 19 17 18 12 17 16 16 17 17 17 17 16 15 12 13 14 14 12 12 12 11 12 11 11 11 11 11 10 10 8 7 9 10 9
17 17 18 18 18 18 19 19 19 19 20 20 20 19 18 18 18 18 17 17 17 16 16 15 15 14 14 12 11 10 11 11 11 10 10 10 10 10 9 8 8 7 8 8
17 17 18 19 18 18 18 19 19 20 20 19 21 20 18 18 18 17 16 16 15 15 16 16 15 14 12 12 12 12 11 12 11 10 10 10 9 9 9 9 10 9 8 8
17 18 19 18 19 18 19 20 20 21 21 20 21 22 20 18 17 16 16 15 15 16 15 15 15 14 14 12 12 9 11 11 11 11 9 8 9 8 7 8 9 9 8 9
16 18 19 19 19 18 19 20 21 20 22 22 22 21 20 19 18 17 17 16 16 15 14 14 14 14 13 13 12 12 11 11 11 11 11 9 8 8 7 8 8 8 7 7
17 17 19 19 19 19 19 19 20 20 22 22 23 21 20 19 19 17 17 16 16 15 13 14 13 13 13 11 11 12 11 11 11 11 10 10 10 8 7 7 7 7 7 7
19 20 20 19 19 19 19 19 20 20 21 21 22 21 20 19 18 17 17 16 15 14 13 12 13 14 14 13 11 12 12 11 11 10 10 11 10 9 8 7 9 7 9 7
19 19 20 20 20 20 20 20 20 21 21 21 21 22 20 18 17 17 17 16 15 13 13 12 12 12 13 13 13 12 12 12 11 10 11 11 11 9 9 8 10 9 9 8
19 19 19 20 20 20 20 19 19 20 20 20 20 21 20 19 18 17 17 15 14 13 12 13 12 12 13 13 13 11 12 12 11 11 11 11 10 9 8 9 8 8 9 8
18 18 20 20 21 21 20 19 19 19 20 20 20 20 20 19 18 17 16 15 13 12 12 12 12 12 13 13 12 12 11 11 11 12 11 10 9 9 9 9 9 9 9 8
17 17 18 18 19 19 19 19 19 19 19 19 20 20 19 18 18 16 15 14 13 11 11 12 12 12 12 12 12 12 11 11 11 9 10 10 9 10 10 9 9 9 9 9
16 17 17 18 18 18 18 19 19 19 19 19 19 18 18 18 16 15 14 13 12 11 10 11 11 11 11 11 11 10 10 10 10 9 8 9 9 9 9 9 9 9 9 9
17 17 17 17 18 18 18 18 19 19 19 19 19 18 18 16 15 13 12 12 12 11 10 10 10 10 10 10 10 10 10 10 10 9 9 9 8 8 8 8 9 8 8 8
17 17 17 17 17 17 17 18 19 19 19 18 17 16 15 14 13 12 11 11 11 10 9 10 10 10 10 10 10 10 10 10 10 9 7 7 8 8 8 8 8 8 8 8
17 17 16 16 16 17 17 18 18 18 17 16 16 15 14 13 12 11 11 11 10 9 9 8 9 10 10 10 10 10 9 9 9 8 8 8 8 8 8 8 8 8 8 8
17 17 17 17 17 17 17 18 17 16 16 15 14 13 13 12 11 11 10 10 9 8 8 8 8 9 9 9 10 9 9 9 8 9 9 8 8 8 8 8 7 7 7 7
17 17 16 16 16 16 17 17 15 15 15 13 12 11 11 10 10 11 10 9 8 8 8 7 8 8 8 9 9 9 8 8 8 8 7 7 7 7 7 7 7 7 7 6
17 16 16 16 16 16 16 16 14 14 14 12 11 11 10 10 9 9 8 8 8 7 7 7 7 7 8 8 8 8 7 7 7 7 7 7 7 7 7 7 7 7 7 6
17 17 17 16 16 16 15 14 14 13 12 11 10 10 10 9 9 8 8 8 7 8 7 6 7 8 7 7 7 7 7 7 7 7 7 7 7 7 7 7 7 7 6 6
16 16 15 15 15 15 14 13 13 12 11 11 10 9 9 9 9 8 8 8 7 7 7 7 7 7 7 7 7 7 7 7 7 7 7 7 7 7 7 7 7 6 6 6
15 15 15 14 14 14 13 12 12 11 11 10 9 9 9 8 8 8 7 7 7 7 8 6 6 7 7 7 7 6 7 7 7 7 7 7 7 7 7 6 6 6 6 6
14 14 14 13 13 13 12 12 11 10 10 9 9 9 9 8 8 7 7 7 7 7 7 6 6 6 7 7 7 7 7 7 7 6 7 7 7 6 6 6 6 6 6 6
13 13 13 13 12 11 11 11 10 9 9 8 8 8 8 8 7 7 7 7 6 6 6 6 6 6 6 7 6 6 6 6 6 6 6 6 6 6 6 6 5 5 5 5

GFSCGP_700_temp_345.txt.gz
Temp
16 16 16 14 15 15 15 15 16 17 16 15 15 15 15 13 14 14 14 13 12 12 12 12 13 14 14 14 13 13 13 14 13 13 13 12 12 11 11 11 11 11 11 11
16 16 16 15 15 15 17 17 18 18 17 15 15 15 16 15 16 15 15 15 14 13 15 12 13 13 14 14 14 13 13 13 13 13 13 12 11 11 11 11 11 10 11 11
16 17 17 16 16 17 17 18 19 19 17 17 17 17 14 16 16 16 15 15 14 15 15 13 13 13 15 14 14 14 13 13 13 13 12 12 11 11 10 9 9 10 9 9
17 17 17 18 18 18 18 19 19 19 19 19 18 17 17 17 17 16 16 16 15 15 14 13 13 14 15 15 14 13 12 13 12 12 12 12 11 11 10 10 8 8 8 7
16 17 18 18 18 18 19 19 19 19 18 18 17 18 18 17 17 17 17 17 16 15 14 14 14 14 14 13 15 14 13 11 12 11 12 11 11 11 10 9 7 8 7 8
16 17 17 18 19 19 19 19 19 18 17 14 18 18 18 17 17 18 18 17 17 17 16 14 14 14 13 13 12 12 12 12 11 11 10 10 10 9 9 8 7 7 7 8
17 18 18 18 19 19 19 19 19 14 15 13 20 18 18 18 18 17 16 16 16 15 16 16 14 13 11 11 11 11 10 12 11 11 9 11 10 10 9 9 8 8 8 7
17 18 19 18 19 19 19 19 19 16 15 18 21 19 18 18 17 17 17 16 16 15 15 15 14 13 12 11 12 12 14 11 11 11 10 11 11 10 10 10 9 7 7 6
17 18 19 19 19 19 19 19 19 19 20 20 20 19 18 17 17 17 17 16 16 15 15 15 15 14 14 13 12 13 12 12 11 11 10 10 11 12 10 11 8 8 7 7
18 17 20 19 20 20 19 19 19 20 16 17 20 19 18 18 18 18 17 16 16 16 15 15 15 14 13 13 12 12 12 11 11 10 10 10 10 11 10 10 9 7 8 7
19 19 19 20 20 20 19 19 20 19 20 17 15 19 19 19 18 17 17 17 16 15 15 14 13 13 13 12 11 11 11 11 10 10 10 10 10 10 9 10 9 9 9 9
18 18 19 19 20 20 20 20 19 19 19 20 20 19 19 18 18 17 17 16 16 15 14 14 13 13 13 13 12 11 9 10 10 10 10 10 10 9 9 9 9 9 9 8
18 18 18 18 19 20 19 19 19 19 19 19 18 19 19 18 17 16 15 15 14 13 13 13 13 12 12 12 12 12 10 10 10 9 10 9 8 8 9 9 8 9 9 8
17 17 17 17 17 18 18 18 19 19 19 19 19 19 19 18 17 16 15 14 13 13 13 12 12 11 11 11 11 11 10 10 10 10 10 10 9 10 9 8 8 8 8 8
17 17 17 17 17 17 18 18 18 18 18 18 19 18 16 16 16 16 15 14 13 12 12 11 11 11 11 10 11 11 10 10 10 10 10 10 9 8 8 7 7 8 8 8
17 17 17 17 17 17 17 17 18 18 18 18 18 16 15 15 15 15 15 15 13 12 11 11 11 10 10 10 10 10 10 10 10 10 10 9 8 8 7 7 6 7 7 8
17 17 17 17 17 16 16 17 17 17 18 18 17 16 15 15 14 14 14 14 13 11 11 10 9 10 10 10 10 10 10 10 10 10 9 9 8 8 6 5 7 8 8 8
16 17 17 17 17 14 16 17 17 17 18 17 16 16 15 15 14 14 13 12 11 10 10 10 9 9 9 9 9 9 9 9 9 9 9 9 8 7 7 7 7 8 8 8
17 17 17 17 16 16 16 17 16 16 16 16 15 15 14 13 13 12 12 11 10 9 8 8 8 8 8 8 8 9 9 9 9 9 8 8 8 7 7 7 7 7 8 7
17 17 17 16 16 14 16 16 16 15 15 14 15 14 13 13 12 12 10 10 10 10 8 8 8 8 8 7 8 8 8 9 9 8 8 8 8 8 7 7 7 7 7 7
16 16 17 16 16 16 16 15 15 15 14 13 12 12 11 11 11 10 10 9 9 8 8 8 8 8 8 7 7 7 8 8 8 8 8 8 7 7 7 7 8 7 7 7
15 16 16 16 16 15 15 15 14 13 13 12 11 11 11 11 11 10 9 8 8 8 8 7 8 8 7 7 7 7 7 7 7 7 7 7 7 7 7 7 7 7 7 7
15 14 14 15 15 15 14 14 13 13 12 12 11 11 10 10 10 9 9 8 8 8 7 7 7 7 7 7 7 7 7 7 7 7 7 7 7 8 8 7 7 7 7 7
14 14 14 14 14 14 13 13 12 12 12 11 11 11 10 10 10 9 8 8 8 8 7 7 7 7 7 8 7 7 7 7 7 7 7 7 7 8 7 7 7 7 7 7
12 12 13 13 13 13 13 12 12 12 11 11 10 10 10 10 9 8 8 8 7 8 7 7 7 7 7 7 7 7 7 7 7 7 7 7 7 7 7 7 6 6 6 6
10 11 11 12 12 12 12 11 11 11 11 10 10 10 9 8 8 8 8 7 7 7 7 7 7 6 7 7 7 7 7 7 7 7 6 6 7 7 6 6 6 6 5 6